Hourly Weather Roundup
Issued by NWS Central Illinois

Home | Current Version | Previous Version | Text Only | Print | Product List | Glossary On
Versions: 1 2 3 4 5 6 7 8 9 10 11 12 13 14 15 16 17 18 19 20 21 22 23 24 25 26 27 28 29 30 31 32 33 34 35 36 37 38 39 40 41 42 43 44 45 46 47 48 49 50
558
NZUS43 KILX 251510
HWRILX

Area Weather Roundup
National Weather Service Lincoln IL
1000 AM CDT SUN JUN 25 2017

NOTE:  "FAIR" indicates few or no clouds below 12,000 feet, with
       no sigificant weather and/or obstructions to visibility.


CITY           SKY/WX    TMP DP  RH WIND       PRES   REMARKS
Bloomington    MOSUNNY   68  48  48 NW16G22   30.18S
Champaign      SUNNY     70  46  42 NW10      30.17S
Danville       SUNNY     67  46  46 W10       30.14S
Decatur        SUNNY     70  47  43 VRB6      30.18S
Effingham      SUNNY     71  53  51 W5        30.21S
Flora          SUNNY     74  51  43 W18G24    30.20F
Galesburg      SUNNY     66  49  55 W13       30.20S
Jacksonville   SUNNY     70  45  40 W10       30.20S
Lacon          MOSUNNY   67  48  51 W8        30.16S
Lawrenceville  SUNNY     73  52  47 W16       30.20S
Litchfield     SUNNY     69  51  53 W7        30.21S
$$


CITY           SKY/WX    TMP DP  RH WIND       PRES   REMARKS
Lincoln        SUNNY     71  46  41 NW8G17    30.18S
Macomb         SUNNY     68  47  46 NW12G17   30.22S
Mattoon        SUNNY     71  52  50 NW10      30.18R
Mt Carmel AP   SUNNY     72  53  50 W16       30.19S
Olney-Noble AP SUNNY     71  52  51 W12       30.20F
Paris AP       SUNNY     68  52  57 NW7       30.19R
Peoria         SUNNY     68  47  46 W13       30.18S
Pontiac        SUNNY     68  48  49 W15G22    30.17S
Rantoul        SUNNY     71  49  45 W13       30.17S
Robinson       SUNNY     71  53  53 W13       30.19S
Springfield    SUNNY     73  48  41 NW13      30.19S
Taylorville    SUNNY     72  48  43 W9        30.20S
$$

...REGIONAL REPORTS...


CITY           SKY/WX    TMP DP  RH WIND       PRES   REMARKS
Chicago O`Hare MOSUNNY   66  48  52 W15       30.10S
Kankakee       SUNNY     67  47  48 W18       30.15S
Moline         SUNNY     66  49  54 W9        30.17S
Mount Sterling SUNNY     68  47  47 NW14      30.21S
Mount Vernon   SUNNY     76  53  44 VRB3      30.21S
Pittsfield     SUNNY     71  47  43 W8        30.23S
Quincy         SUNNY     69  48  47 NW13      30.22R
Rockford       MOSUNNY   66  50  56 W15       30.13F
$$


CITY           SKY/WX    TMP DP  RH WIND       PRES   REMARKS
Burlington     SUNNY     67  47  48 NW8G20    30.20S
Cedar Rapids   MOSUNNY   63  51  65 NW16      30.18S
Des Moines     MOSUNNY   65  47  52 NW16      30.24F
Kirksville     SUNNY     69  47  45 NW12      30.26S
Ottumwa        SUNNY     66  46  48 NW14      30.22S
St Louis       MOSUNNY   76  52  43 NW12      30.22S
$$


CITY           SKY/WX    TMP DP  RH WIND       PRES   REMARKS
Terre Haute    SUNNY     70  51  51 NW7       30.17S
Evansville     SUNNY     77  51  40 W10       30.21S
Indianapolis   SUNNY     69  49  48 W12       30.16S
Lafayette      SUNNY     66  50  56 W10       30.14S
Madison        PTSUNNY   60  52  74 W9        30.09S
Milwaukee      MOSUNNY   65  49  56 W15G21    30.06S
$$






USA.gov is the U.S. government's official web portal to all federal, state and local government web resources and services.